FW2360 Weather Reports


time (UTC)temp
C
wind
direction
speed
KPH
gust
KPH
rain 1hr
cm
rain 24hr
cm
rain mn
cm
humidity
%
barometer
mb
20260504204532 24 54 3.2 12.9 0.00 0.00 0.00 40 1012.2
20260504203033 24 155 3.2 11.3 0.00 0.00 0.00 42 1012.2
20260504201529 23 26 3.2 11.3 0.00 0.00 0.00 41 1012.6
20260504200039 24 147 3.2 14.5 0.00 0.00 0.00 42 1012.7
20260504194533 23 279 1.6 14.5 0.00 0.00 0.00 41 1013.0
20260504193032 23 0 3.2 12.9 0.00 0.00 0.00 40 1013.1
20260504191546 23 145 1.6 8.0 0.00 0.00 0.00 40 1013.2
20260504190031 23 143 4.8 12.9 0.00 0.00 0.00 41 1013.3
20260504184538 23 239 3.2 16.1 0.00 0.00 0.00 40 1013.7
20260504183040 23 51 4.8 14.5 0.00 0.00 0.00 41 1013.7
20260504181532 22 173 3.2 9.7 0.00 0.00 0.00 41 1014.0
20260504180030 22 43 1.6 12.9 0.00 0.00 0.00 41 1014.2
20260504174531 22 0 3.2 9.7 0.00 0.00 0.00 39 1014.4
20260504173030 23 63 1.6 8.0 0.00 0.00 0.00 37 1014.4
20260504171531 23 169 4.8 14.5 0.00 0.00 0.00 37 1014.5
20260504081534 10 0 0.0 0.0 0.00 0.00 0.00 63 1016.8
20260504044537 10 0 0.0 0.0 0.00 0.00 0.00 63 1017.3
20260504043030 10 0 0.0 0.0 0.00 0.00 0.00 60 1017.2
20260504041532 10 0 0.0 0.0 0.00 0.00 0.00 58 1017.2
20260504040030 10 0 0.0 1.6 0.00 0.00 0.00 57 1017.1
20260504034546 10 0 0.0 1.6 0.00 0.00 0.00 59 1017.0
20260504033029 11 0 0.0 0.0 0.00 0.00 0.00 58 1016.9
20260504031534 11 0 0.0 0.0 0.00 0.00 0.00 61 1017.0
20260504030042 11 117 0.0 0.0 0.00 0.00 0.00 55 1016.9
20260504024532 11 0 0.0 0.0 0.00 0.00 0.00 58 1016.9
20260504023030 11 0 0.0 1.6 0.00 0.00 0.00 59 1016.8
20260504021531 11 0 0.0 1.6 0.00 0.00 0.00 55 1016.6
20260504020031 12 117 0.0 3.2 0.00 0.00 0.00 49 1016.3
20260504014541 12 0 0.0 1.6 0.00 0.00 0.00 48 1016.2
20260504013036 12 0 0.0 0.0 0.00 0.00 0.00 47 1016.1
20260504011530 13 0 0.0 0.0 0.00 0.00 0.00 43 1016.0
20260504010029 13 0 0.0 0.0 0.00 0.00 0.00 42 1016.1
20260504004532 13 0 0.0 1.6 0.00 0.00 0.00 41 1015.8
20260504003036 15 0 0.0 0.0 0.00 0.00 0.00 40 1015.8
20260504001530 15 0 0.0 1.6 0.00 0.00 0.00 36 1015.8
20260504000031 16 0 0.0 3.2 0.00 0.00 0.00 35 1015.7
20260503234540 17 0 0.0 3.2 0.00 0.00 0.00 32 1015.6
20260503233031 17 0 0.0 3.2 0.00 0.00 0.00 30 1015.5
20260503231533 17 0 0.0 4.8 0.00 0.00 0.00 28 1015.5
20260503230035 17 0 0.0 6.4 0.00 0.00 0.00 29 1015.5
20260503224532 17 253 1.6 9.7 0.00 0.00 0.00 27 1015.5
20260503223030 17 0 0.0 8.0 0.00 0.00 0.00 28 1015.5
20260503221534 17 144 3.2 11.3 0.00 0.00 0.00 29 1015.6
20260503220032 17 181 1.6 11.3 0.00 0.00 0.00 28 1015.7
20260503214533 17 192 1.6 9.7 0.00 0.00 0.00 29 1015.7
20260503213032 18 348 3.2 12.9 0.00 0.00 0.00 28 1015.7
20260503211534 18 18 1.6 6.4 0.00 0.00 0.00 30 1015.8
20260503210032 18 227 3.2 9.7 0.00 0.00 0.00 28 1015.9